User: anonymous
Location: Unspecified
(0.0000°N, 0.0000°E)
Time: 02:35:38
(UTC+00:00)
Language:

Explorer 11/Cluster Stage 4 - Orbit

View from above orbital plane
View from above orbital plane
View from above satellite
View from above satellite

Ground track
Ground track

The orbit data is extracted from the following two-line orbital elements,

1 00107U 61013A   14212.82359706  .00000856  00000-0  96633-4 0  1003
2 00107 028.7916 051.9753 0562507 284.1373 200.3234 14.05041099662850
Epoch (UTC): 31 July 2014 19:45:58
Eccentricity: 0.0562507
inclination: 28.7916°
perigee height: 468 km
apogee height: 1284 km
right ascension of ascending node: 51.9753°
argument of perigee: 284.1373°
revolutions per day: 14.05041099
mean anomaly at epoch: 200.3234°
orbit number at epoch: 66285

The dashed part of the orbit path shows where the satellite is in the earth's shadow,  

DLR